Stanley, ID

10:23 PM MST on February 09, 2016 (GMT -0700)
Stanley

Weather History for KSNT - August, 2014

Change the Weather History Date:

Sunday, August 24, 2014

  Actual Average Record
Temperature  
Mean Temperature 47 °F 54 °F  
Max Temperature 63 °F 75 °F 93 °F (1969)
Min Temperature 31 °F 33 °F 16 °F (1992)
Degree Days  
Heating Degree Days 18 11  
Month to date heating degree days 154 194  
Since 1 June heating degree days 736 889  
Since 1 July heating degree days 266 435  
Cooling Degree Days 0 0  
Month to date cooling degree days 4 0  
Year to date cooling degree days 16 3  
Since 1 June cooling degree days 16 3  
Moisture  
Dew Point 36 °F    
Average Humidity 66    
Maximum Humidity 96    
Minimum Humidity 36    
Precipitation  
Precipitation 0.00 in 0.03 in 0.19 in (1989)
Month to date precipitation 0.97 0.47  
Year to date precipitation 14.59 11.08  
Sea Level Pressure  
Sea Level Pressure 29.96 in    
Wind  
Wind Speed 2 mph (South)    
Max Wind Speed 16 mph    
Max Gust Speed 23 mph    
T = Trace of Precipitation, MM = Missing Value Source: NWS Daily Summary

Daily Weather History Graph

Daily Weather History Graph

Search for Another Location

Airport or City:

Trip Planner

Search our weather history database for the weather conditions in past years. The results will help you decide how hot, cold, wet, or windy it might be!

Date:

Astronomy

Aug. 24, 2014 Rise Set
Actual Time 6:53 AM MDT 8:29 PM MDT
Civil Twilight 6:23 AM MDT 9:00 PM MDT
Nautical Twilight 5:46 AM MDT 9:36 PM MDT
Astronomical Twilight 5:06 AM MDT 10:16 PM MDT
Moon 6:08 AM MDT (8/24) 7:48 PM MDT (8/24)
Length of Visible Light 14h 36m
Length of Day
13h 36m
Waning Crescent, 1% of the Moon is Illuminated
Aug 24
Waning Crescent
Aug 25
New
Sep 2
First Quarter
Sep 8
Full
Sep 15
Last Quarter

Hourly Weather History & Observations

Time (MDT) Temp. Windchill Dew Point Humidity Pressure Visibility Wind Dir Wind Speed Gust Speed Precip Events Conditions
12:51 AM 43.0 °F 41.3 °F 37.9 °F 82% 30.01 in - North 3.5 mph - N/A   Unknown
1:51 AM 37.0 °F 33.3 °F 35.1 °F 93% 30.02 in - South 4.6 mph - N/A   Unknown
2:51 AM 39.0 °F - 37.0 °F 93% 29.99 in - Calm Calm - N/A   Unknown
3:51 AM 36.0 °F - 34.0 °F 93% 30.00 in - Calm Calm - N/A   Unknown
4:51 AM 35.1 °F 32.2 °F 33.1 °F 92% 30.00 in - Variable 3.5 mph - N/A   Unknown
5:51 AM 34.0 °F - 32.0 °F 92% 30.00 in - Calm Calm - N/A   Unknown
6:51 AM 32.0 °F 28.7 °F 30.9 °F 96% 30.01 in - SSE 3.5 mph - N/A   Unknown
7:51 AM 35.1 °F - 34.0 °F 96% 30.01 in - Calm Calm - N/A   Unknown
8:51 AM 37.0 °F - 36.0 °F 96% 30.01 in - Calm Calm - N/A   Unknown
9:51 AM 44.1 °F - 39.9 °F 85% 30.00 in - Calm Calm - N/A   Unknown
10:51 AM 52.0 °F - 39.9 °F 63% 29.95 in - Calm Calm - N/A   Unknown
11:51 AM 55.0 °F - 39.0 °F 55% 29.94 in - Calm Calm - N/A   Unknown
12:51 PM 57.0 °F - 39.0 °F 51% 29.93 in - Calm Calm - N/A   Unknown
1:51 PM 55.9 °F - 39.0 °F 53% 29.94 in - NW 8.1 mph - N/A   Unknown
2:51 PM 59.0 °F - 35.1 °F 41% 29.91 in - Calm Calm - N/A   Unknown
3:51 PM 59.0 °F - 34.0 °F 39% 29.92 in - Variable 5.8 mph 23.0 mph N/A   Unknown
4:51 PM 63.0 °F - 35.1 °F 35% 29.89 in - Variable 3.5 mph - N/A   Unknown
5:51 PM 61.0 °F - 37.0 °F 41% 29.90 in - SSW 5.8 mph - N/A   Unknown
6:51 PM 60.1 °F - 36.0 °F 41% 29.90 in - South 6.9 mph - N/A   Unknown
7:51 PM 59.0 °F - 35.1 °F 41% 29.88 in - Calm Calm - N/A   Unknown
8:51 PM 48.9 °F - 39.0 °F 69% 29.93 in - South 4.6 mph - N/A   Unknown
9:51 PM 44.1 °F - 37.9 °F 79% 29.94 in - Calm Calm - N/A   Unknown
10:51 PM 42.1 °F 40.2 °F 37.0 °F 82% 29.92 in - Variable 3.5 mph - N/A   Unknown
11:51 PM 41.0 °F - 36.0 °F 82% 29.94 in - Calm Calm - N/A   Unknown